Location: Bakov nad Jizerou
(50.4784°N, 14.9394°E)
Time: 02:37:44
(UTC+00:00)

Cosmos 1727 Rocket - Pass Details

Date: 26 October 2021
Orbit: 960 x 997 km, 82.9° (Epoch: 07 December)

Event Time Altitude Azimuth Distance (km) Brightness Sun altitude
Rises 04:41:59 0° 177° (S) 3,694 7.2 -10.0°
Reaches altitude 10° 04:44:31 10° 174° (S) 2,746 6.5 -9.6°
Maximum altitude 04:50:45 66° 94° (E) 1,073 4.6 -8.6°
Drops below altitude 10° 04:56:57 10° 14° (NNE) 2,740 6.4 -7.6°
Sets 04:59:29 0° 12° (NNE) 3,687 7.0 -7.2°
